Location: Bacharowice
(49.9333°N, 19.5833°E)
Time: 08:24:11
(UTC+00:00)

SJ 16-02 - Pass Details

Date: 11 May 2021
Orbit: 606 x 616 km, 75.0° (Epoch: 21 June)

Event Time Altitude Azimuth Distance (km) Brightness Sun altitude
Exits shadow 21:19:27 - 234° (SW) 2,326 4.1 -19.8°
Reaches altitude 10° 21:20:25 10° 239° (WSW) 1,978 3.8 -19.8°
Maximum altitude 21:24:22 31° 302° (WNW) 1,088 3.1 -20.0°
Drops below altitude 10° 21:28:21 10° 6° (N) 1,990 4.9 -20.2°
Sets 21:30:49 0° 16° (NNE) 2,899 5.7 -20.3°
